User: anonymous   Login
Location: �clusier
(49.9361°N, 2.7869°E)
Time: 19:47:27
(UTC+00:00)
Language:

Cosmos 2123 Rocket - Orbit

View from above orbital plane
View from above orbital plane
View from above satellite
View from above satellite

Ground track
Ground track

The orbit data is extracted from the following two-line orbital elements,

1 21090U 91007B   21268.42874238  .00000071  00000-0  56695-4 0  9999
2 21090  82.9230 155.9222 0020708 354.2918   5.7999 13.76403721538743
Epoch (UTC): 25 September 2021 10:17:23
Eccentricity: 0.0020708
inclination: 82.9230°
perigee height: 961 km
apogee height: 992 km
right ascension of ascending node: 155.9222°
argument of perigee: 354.2918°
revolutions per day: 13.76403721
mean anomaly at epoch: 5.7999°
orbit number at epoch: 53874

The dashed part of the orbit path shows where the satellite is in the earth's shadow,  

DLR